Hourly Data Report for September 20, 2003

SHERBROOKE A
QUEBEC

45°26'00.000" N
71°41'00.000" W
241.40 m
7028124
71610
YSC

Download Data

Hourly Data (September 2003)
Hourly Data Report for September 20, 2003
TIME
LST
Temp Definition
°C
Dew Point Definition
°C
Rel Hum Definition
%
Precip. Amount Definition
mm

Wind Dir Definition
10's deg

Wind Spd Definition
km/h
Visibility Definition
km
Stn Press Definition
kPa
Hmdx Definition


Wind Chill Definition


Weather Definition


00:00 19.1 15.6 80   15 11 15.0 98.69      
01:00 19.2 15.5 79   14 9 15.0 98.68      
02:00 20.3 15.7 75   20 6 15.0 98.73 25    
03:00 19.2 16.7 85   16 9 15.0 98.76      
04:00 19.6 16.7 83   17 11 15.0 98.79      
05:00 19.2 16.9 87   21 4 15.0 98.88      
06:00 18.3 16.8 91   4 4 15.0 98.95      
07:00 19.0 17.8 93     0 16.1 98.99     Rain
08:00 20.6 18.1 86   20 6 19.3 99.00 27   Mostly Cloudy
09:00 21.3 17.9 81   23 11 24.1 99.03 27   Cloudy
10:00 20.7 16.7 78   23 11 24.1 99.03 26   Cloudy
11:00 20.5 16.2 76   25 7 24.1 99.04 25   Cloudy
12:00 20.6 15.0 70   25 13 24.1 99.04 25   Mostly Cloudy
13:00 20.5 14.4 68   23 7 24.1 99.02     Mostly Cloudy
14:00 20.0 13.7 67   23 7 24.1 99.03     Cloudy
15:00 19.9 14.8 72   24 7 24.1 99.06     Mostly Cloudy
16:00 19.4 12.6 65   28 15 24.1 99.10     Mostly Cloudy
17:00 19.1 11.7 62   29 13 15.0 99.17      
18:00 16.0 10.7 71   27 9 15.0 99.25      
19:00 15.1 10.2 73   25 4 15.0 99.31      
20:00 11.4 9.6 89     0 15.0 99.37      
21:00 10.1 8.8 92   22 4 15.0 99.41      
22:00 8.9 7.9 93     0 15.0 99.44      
23:00 7.3 6.2 93     0 15.0 99.45      

Notes on Data Quality.

Legend

  • E = Estimated
  • M = Missing
  • NA = Not Available*
  • [empty] = Indicates an unobserved value
Date modified: